STARLINK-1196 (45103 NORAD) Tracking and Keplerian Element Data

This shows tracking and keplerian element data for the satellite.

Feedback or suggestion? Click here.




ElementValue
Catalog45103
NameSTARLINK-1196
Epoch Orbit177
Epoch Day52.91667824
Epoch Year2020
RAAN119.5045
Inclination52.9966
Eccentricity0.0001917
Argument of Perigee330.7302
Mean Anonmoly177.1175
Mean Motion15.73163077
Decay Rate0.00142264
L11 45103U 20006BM 20052.91667824 .00142264 00000-0 10023-2 0 9990
L22 45103 52.9966 119.5045 0001917 330.7302 177.1175 15.73163077 1777

Live tracking and technical data element details for STARLINK-1196 (NORAD 45103). STARLINK-1196 can be tracked NOW for your location showing map with azimuth and elevation plus other details from your city location.

Track the satellite on the map from your city or location and see movement details for azimuth, elevation, latitude, longitude, range, height, and movement on the map or in text.







IsCatalogInMostPopularTable: catalog: 45103, numindb: 11
Update: records affected: 1



GetName: 45103 STARLINK-1196

Hit Count: updated at: Mon, 24 Feb 2020 17:19:41 GMT